Weather History for Cozumel, Mexico

Change the Weather History Date:

Tuesday, July 16, 2013

  Actual Average Record
Temperature  
Mean Temperature 76 °F -  
Max Temperature 82 °F 89 °F 95 °F (2007)
Min Temperature 71 °F 76 °F 69 °F (2011)
Cooling Degree Days 12    
Growing Degree Days 26 (Base 50)    
Moisture  
Dew Point 73 °F    
Average Humidity 91    
Maximum Humidity 100    
Minimum Humidity 74    
Precipitation  
Precipitation 0.85 in - - ()
Sea Level Pressure  
Sea Level Pressure 29.97 in    
Wind  
Wind Speed 3 mph ()    
Max Wind Speed 12 mph    
Max Gust Speed -    
Visibility 7.0 miles    
Events Rain    
Averages and records for this station are not official NWS values.
T = Trace of Precipitation, MM = Missing Value Source: Averaged Metar Reports

Daily Weather History Graph

Daily Weather History Graph

Search for Another Location

Airport:

Trip Planner

Search our weather history database for the weather conditions in past years. The results will help you decide how hot, cold, wet, or windy it might be!

Date:

Astronomy

Jul. 16, 2013 Rise Set
Actual Time 6:16 AM CDT 7:31 PM CDT
Civil Twilight 5:52 AM CDT 7:55 PM CDT
Nautical Twilight 5:23 AM CDT 8:23 PM CDT
Astronomical Twilight 4:53 AM CDT 8:53 PM CDT
Moon 1:29 PM CDT (7/16) 12:23 AM CDT (7/16)
Length of Visible Light 14h 03m
Length of Day
13h 14m
First Quarter, 56% of the Moon is Illuminated
Jul 16
First Quarter
Jul 22
Full
Jul 29
Last Quarter
Aug 6
New
Aug 14
First Quarter

Hourly Weather History & Observations

Time (CDT) Temp. Heat Index Dew Point Humidity Pressure Visibility Wind Dir Wind Speed Gust Speed Precip Events Conditions
12:41 AM 73.4 °F - 71.6 °F 94% 29.95 in 7.0 mi Calm Calm - N/A   Mostly Cloudy
1:40 AM 73.4 °F - 71.6 °F 94% 29.95 in 7.0 mi Calm Calm - N/A   Mostly Cloudy
2:40 AM 73.4 °F - 71.6 °F 94% 29.95 in 7.0 mi East 3.5 mph - N/A   Mostly Cloudy
3:40 AM 71.6 °F - 69.8 °F 94% 29.97 in 7.0 mi Calm Calm - N/A   Mostly Cloudy
4:40 AM 73.4 °F - 71.6 °F 94% 29.94 in 7.0 mi Calm Calm - N/A   Mostly Cloudy
5:40 AM 73.4 °F - 71.6 °F 94% 29.93 in 7.0 mi East 3.5 mph - N/A   Mostly Cloudy
6:40 AM 73.4 °F - 71.6 °F 94% 29.92 in 7.0 mi East 5.8 mph - N/A   Mostly Cloudy
7:47 AM 75.2 °F - 73.4 °F 94% 29.96 in 7.0 mi East 4.6 mph - N/A   Mostly Cloudy
8:45 AM 77.0 °F - 75.2 °F 94% 29.97 in 7.0 mi East 5.8 mph - N/A   Mostly Cloudy
9:46 AM 80.6 °F 86.2 °F 75.2 °F 84% 30.01 in 7.0 mi East 6.9 mph - N/A   Mostly Cloudy
10:53 AM 82.4 °F 88.2 °F 73.4 °F 74% 29.99 in 7.0 mi East 8.1 mph - N/A   Mostly Cloudy
11:43 AM 80.6 °F 85.4 °F 73.4 °F 79% 29.98 in 7.0 mi East 10.4 mph - N/A   Mostly Cloudy
12:44 PM 80.6 °F 86.2 °F 75.2 °F 84% 29.96 in 7.0 mi East 6.9 mph - N/A   Mostly Cloudy
1:48 PM 80.6 °F 85.4 °F 73.4 °F 79% 29.96 in 7.0 mi East 11.5 mph - N/A   Mostly Cloudy
2:51 PM 77.0 °F - 73.4 °F 89% 29.96 in 6.0 mi Calm Calm - N/A Rain Light Rain
3:52 PM 77.0 °F - 75.2 °F 94% 29.97 in 7.0 mi East 5.8 mph - N/A   Mostly Cloudy
4:45 PM 78.8 °F - 75.2 °F 89% 29.95 in 7.0 mi East 4.6 mph - N/A   Mostly Cloudy
5:47 PM 77.0 °F - 71.6 °F 83% 29.95 in 7.0 mi ENE 5.8 mph - N/A   Mostly Cloudy
6:48 PM 77.0 °F - 73.4 °F 89% 29.94 in 7.0 mi East 4.6 mph - N/A   Mostly Cloudy
7:45 PM 75.2 °F - 73.4 °F 94% 29.97 in 7.0 mi East 3.5 mph - N/A   Mostly Cloudy
8:41 PM 75.2 °F - 73.4 °F 94% 29.99 in 7.0 mi East 4.6 mph - N/A   Scattered Clouds
9:48 PM 73.4 °F - 73.4 °F 100% 30.04 in 7.0 mi Calm Calm - N/A   Scattered Clouds
10:43 PM 71.6 °F - 71.6 °F 100% 30.02 in 7.0 mi Calm Calm - N/A   Scattered Clouds
11:43 PM 71.6 °F - 71.6 °F 100% 30.01 in 7.0 mi Calm Calm - N/A   Scattered Clouds